Location: Beaurecueil
(43.5122°N, 5.5450°E)
Time: 00:55:17
(UTC+00:00)

CZ-2C R/B - Pass Details

Date: 18 September 2020
Orbit: 391 x 588 km, 35.0° (Epoch: 26 October)

Event Time Altitude Azimuth Distance (km) Brightness Sun altitude
Rises 18:58:18 0° 241° (WSW) 2,453 5.4 -14.5°
Reaches altitude 10° 19:00:55 10° 223° (SW) 1,541 3.9 -14.9°
Maximum altitude 19:03:28 19° 176° (S) 1,076 2.6 -15.4°
Enters shadow 19:03:59 18° 164° (SSE) 1,092 2.5 -15.5°
